Starlink 11136

operational
NORAD ID: 60407 Int'l Des: 2024-141 Owner: SPXS Country: US Constellation: starlink
LEOCIRCULAR

Über Starlink 11136

Beschreibung wird geladen...

Live-Position

3D-Globus wird geladen...

Nächste Überflüge

Höhenverlauf

Altitude vs Time

uPlot chart will show altitude changes over time

Zweizeiliger Elementsatz

1 60407U 24141K 25351.63580083 -.00001303 00000-0 -59003-5 0 9999
2 60407 53.1592 130.8857 0000941 86.8380 273.2746 15.69704234 78808
Epoch: 17. Dez. 2025 • Age: 25 hours

Aktueller Status

Höhe 368.9 km
Geschwindigkeit 7.69 km/s
Subsatellitenpunkt -29.12°S, 6.8°W
Startdatum 10. Aug. 2024
Alter 1.3 years
Typ internet

Technische Details

Klassifizierung Payload
Masse 960.00 kg
Trockenmasse 910.00 kg
Gesamtmasse 960.00 kg
Länge 0.30 m
Durchmesser 4.10 m
Spannweite 29.00 m
Form Box + pan
Hersteller SPXS
Bus-Typ Starlink V2MD
Phasenstatus In Orbit
Besitzer/Staat SPXS/US

Große Konstellationen

Loading constellations...